When you browse on this site, cookies collect data to enhance your experience and personalize the content and advertising you see.
Visit our Privacy Policy to learn more. By continuing to use the site, you agree to this use of cookies and data.
  • In Romania
  • List of Countries
  • For 7 days
  • Water Temperature
  • Weather Map
  • Weather Widgets
  • user-avatar
    Login

    Hourly Weather Santiago de Compostela

    Today, 4 June, Thursday

    Time Temperature Precipitation Wind Pressure Humidity
    00:00 +11°C° 0 mm 0 mps 737 mmHg 98%
    01:00 +11°C° 0 mm 0 mps 736 mmHg 98%
    02:00 +11°C° 0 mm 0 mps 736 mmHg 98%
    03:00 +12°C° 0 mm 0 mps 736 mmHg 97%
    04:00 +13°C° 0 mm 1 mps 736 mmHg 97%
    05:00 +13°C° 0 mm 1 mps 736 mmHg 96%
    06:00 +14°C° 0.1 mm 2 mps 736 mmHg 89%
    07:00 +16°C° 0.1 mm 2 mps 737 mmHg 81%
    08:00 +17°C° 0.1 mm 2 mps 737 mmHg 74%
    09:00 +17°C° 0.1 mm 2 mps 738 mmHg 68%
    10:00 +18°C° 0.1 mm 3 mps 738 mmHg 62%
    11:00 +19°C° 0 mm 3 mps 738 mmHg 56%
    12:00 +19°C° 0 mm 3 mps 738 mmHg 57%
    13:00 +19°C° 0 mm 3 mps 738 mmHg 59%
    14:00 +19°C° 0 mm 3 mps 738 mmHg 60%
    15:00 +18°C° 0 mm 3 mps 738 mmHg 63%
    16:00 +17°C° 0 mm 3 mps 739 mmHg 66%
    17:00 +17°C° 0 mm 3 mps 739 mmHg 70%
    18:00 +14°C° 0 mm 3 mps 739 mmHg 77%
    19:00 +13°C° 0 mm 2 mps 739 mmHg 84%
    20:00 +12°C° 0 mm 1 mps 740 mmHg 92%
    21:00 +11°C° 0 mm 1 mps 740 mmHg 94%
    22:00 +10°C° 0 mm 1 mps 740 mmHg 95%
    23:00 +10°C° 0 mm 1 mps 740 mmHg 97%

    Tomorrow, 5 June, Friday

    Time Temperature Precipitation Wind Pressure Humidity
    00:00 +10°C° 0 mm 1 mps 740 mmHg 97%
    01:00 +9°C° 0 mm 1 mps 740 mmHg 97%
    02:00 +9°C° 0 mm 1 mps 740 mmHg 97%
    03:00 +10°C° 0 mm 1 mps 740 mmHg 95%
    04:00 +10°C° 0 mm 1 mps 740 mmHg 94%
    05:00 +11°C° 0 mm 1 mps 739 mmHg 92%
    06:00 +13°C° 0 mm 1 mps 740 mmHg 83%
    07:00 +15°C° 0 mm 1 mps 740 mmHg 74%
    08:00 +18°C° 0 mm 1 mps 740 mmHg 65%
    09:00 +19°C° 0 mm 2 mps 740 mmHg 60%
    10:00 +21°C° 0 mm 2 mps 740 mmHg 56%
    11:00 +23°C° 0 mm 2 mps 740 mmHg 51%
    12:00 +23°C° 0 mm 2 mps 740 mmHg 52%
    13:00 +24°C° 0 mm 2 mps 740 mmHg 52%
    14:00 +24°C° 0 mm 3 mps 739 mmHg 53%
    15:00 +22°C° 0 mm 3 mps 739 mmHg 58%
    16:00 +20°C° 0 mm 3 mps 739 mmHg 64%
    17:00 +19°C° 0 mm 2 mps 739 mmHg 69%
    18:00 +17°C° 0 mm 2 mps 739 mmHg 77%
    19:00 +15°C° 0 mm 2 mps 739 mmHg 86%
    20:00 +13°C° 0 mm 1 mps 739 mmHg 94%
    21:00 +13°C° 0 mm 1 mps 739 mmHg 94%
    22:00 +13°C° 0 mm 1 mps 739 mmHg 95%
    23:00 +13°C° 0 mm 1 mps 739 mmHg 95%

    Day after tomorrow, 6 June, Saturday

    Time Temperature Precipitation Wind Pressure Humidity
    00:00 +12°C° 0 mm 0 mps 739 mmHg 94%
    01:00 +12°C° 0 mm 0 mps 739 mmHg 93%
    02:00 +13°C° 0 mm 0 mps 739 mmHg 91%
    03:00 +13°C° 0 mm 0 mps 738 mmHg 90%
    04:00 +13°C° 0 mm 0 mps 738 mmHg 89%
    05:00 +13°C° 0 mm 0 mps 738 mmHg 87%
    06:00 +14°C° 0 mm 0 mps 738 mmHg 83%
    07:00 +15°C° 0 mm 0 mps 738 mmHg 79%
    08:00 +18°C° 0 mm 1 mps 738 mmHg 74%
    09:00 +19°C° 0 mm 1 mps 738 mmHg 71%
    10:00 +19°C° 0 mm 1 mps 738 mmHg 69%
    11:00 +20°C° 0 mm 1 mps 738 mmHg 66%
    12:00 +20°C° 0 mm 1 mps 738 mmHg 66%
    13:00 +19°C° 0 mm 2 mps 738 mmHg 67%
    14:00 +19°C° 0 mm 2 mps 738 mmHg 68%
    15:00 +18°C° 0 mm 2 mps 738 mmHg 71%
    16:00 +18°C° 0 mm 2 mps 738 mmHg 75%
    17:00 +17°C° 0 mm 2 mps 737 mmHg 78%
    18:00 +16°C° 0 mm 1 mps 738 mmHg 83%
    19:00 +15°C° 0 mm 1 mps 738 mmHg 87%
    20:00 +15°C° 0 mm 1 mps 739 mmHg 92%
    21:00 +14°C° 0 mm 1 mps 738 mmHg 93%
    22:00 +14°C° 0 mm 1 mps 738 mmHg 94%
    23:00 +14°C° 0 mm 1 mps 738 mmHg 95%

    7 June, Sunday

    Time Temperature Precipitation Wind Pressure Humidity
    00:00 +14°C° 0 mm 1 mps 738 mmHg 94%
    01:00 +13°C° 0 mm 2 mps 738 mmHg 93%
    02:00 +13°C° 0 mm 2 mps 738 mmHg 92%
    03:00 +13°C° 0 mm 2 mps 738 mmHg 89%
    04:00 +12°C° 0 mm 2 mps 738 mmHg 86%
    05:00 +12°C° 0 mm 2 mps 739 mmHg 84%
    06:00 +13°C° 0 mm 2 mps 739 mmHg 77%
    07:00 +14°C° 0 mm 2 mps 739 mmHg 70%
    08:00 +15°C° 0 mm 2 mps 740 mmHg 63%
    09:00 +16°C° 0 mm 3 mps 740 mmHg 58%
    10:00 +17°C° 0 mm 3 mps 740 mmHg 53%
    11:00 +18°C° 0 mm 3 mps 740 mmHg 49%
    12:00 +18°C° 0 mm 3 mps 740 mmHg 47%
    13:00 +18°C° 0 mm 3 mps 740 mmHg 45%
    14:00 +18°C° 0 mm 4 mps 740 mmHg 44%
    15:00 +18°C° 0 mm 4 mps 740 mmHg 49%
    16:00 +17°C° 0 mm 4 mps 740 mmHg 53%
    17:00 +15°C° 0 mm 4 mps 740 mmHg 58%
    18:00 +13°C° 0 mm 3 mps 741 mmHg 66%
    19:00 +12°C° 0 mm 3 mps 741 mmHg 74%
    20:00 +10°C° 0 mm 2 mps 741 mmHg 82%
    21:00 +9°C° 0 mm 2 mps 741 mmHg 86%
    22:00 +8°C° 0 mm 2 mps 742 mmHg 90%
    23:00 +9°C° 0 mm 1 mps 742 mmHg 95%

    8 June, Monday

    Time Temperature Precipitation Wind Pressure Humidity
    00:00 +9°C° 0 mm 1 mps 742 mmHg 95%
    01:00 +8°C° 0 mm 1 mps 741 mmHg 96%
    02:00 +8°C° 0 mm 1 mps 741 mmHg 97%
    03:00 +9°C° 0 mm 1 mps 741 mmHg 95%
    04:00 +10°C° 0 mm 1 mps 742 mmHg 94%
    05:00 +10°C° 0 mm 1 mps 742 mmHg 92%
    06:00 +12°C° 0 mm 1 mps 742 mmHg 81%
    07:00 +14°C° 0 mm 2 mps 742 mmHg 70%
    08:00 +17°C° 0 mm 2 mps 742 mmHg 59%
    09:00 +18°C° 0 mm 2 mps 742 mmHg 55%
    10:00 +19°C° 0 mm 3 mps 742 mmHg 51%
    11:00 +20°C° 0 mm 3 mps 743 mmHg 46%
    12:00 +20°C° 0 mm 3 mps 742 mmHg 49%
    13:00 +20°C° 0 mm 3 mps 742 mmHg 52%
    14:00 +20°C° 0 mm 4 mps 742 mmHg 55%
    15:00 +19°C° 0 mm 4 mps 742 mmHg 58%
    16:00 +18°C° 0 mm 4 mps 742 mmHg 61%
    17:00 +18°C° 0 mm 4 mps 742 mmHg 64%
    18:00 +16°C° 0 mm 3 mps 742 mmHg 71%
    19:00 +14°C° 0 mm 3 mps 743 mmHg 79%
    20:00 +12°C° 0 mm 3 mps 743 mmHg 86%
    21:00 +12°C° 0 mm 3 mps 743 mmHg 88%
    22:00 +11°C° 0 mm 3 mps 743 mmHg 89%
    23:00 +12°C° 0 mm 2 mps 743 mmHg 91%

    9 June, Tuesday

    Time Temperature Precipitation Wind Pressure Humidity
    00:00 +12°C° 0 mm 2 mps 743 mmHg 92%
    01:00 +12°C° 0 mm 2 mps 743 mmHg 93%
    02:00 +10°C° 0 mm 2 mps 742 mmHg 94%
    03:00 +12°C° 0 mm 2 mps 743 mmHg 93%
    04:00 +12°C° 0 mm 2 mps 743 mmHg 92%
    05:00 +12°C° 0 mm 2 mps 743 mmHg 91%
    06:00 +13°C° 0 mm 3 mps 743 mmHg 81%
    07:00 +16°C° 0 mm 3 mps 743 mmHg 71%
    08:00 +18°C° 0 mm 3 mps 743 mmHg 61%
    09:00 +19°C° 0 mm 3 mps 743 mmHg 55%
    10:00 +21°C° 0 mm 3 mps 743 mmHg 50%
    11:00 +22°C° 0 mm 3 mps 743 mmHg 45%
    12:00 +22°C° 0 mm 3 mps 743 mmHg 45%
    13:00 +23°C° 0 mm 4 mps 743 mmHg 45%
    14:00 +23°C° 0 mm 4 mps 742 mmHg 45%
    15:00 +22°C° 0 mm 4 mps 742 mmHg 50%
    16:00 +21°C° 0 mm 4 mps 742 mmHg 55%
    17:00 +19°C° 0 mm 4 mps 742 mmHg 59%
    18:00 +18°C° 0 mm 3 mps 743 mmHg 67%
    19:00 +16°C° 0 mm 3 mps 743 mmHg 74%
    20:00 +13°C° 0 mm 3 mps 743 mmHg 81%
    21:00 +12°C° 0 mm 3 mps 743 mmHg 86%
    22:00 +13°C° 0 mm 2 mps 743 mmHg 90%
    23:00 +12°C° 0 mm 2 mps 743 mmHg 94%
    Show more